Flag for Australia Weather past 2 weeks in Brisbane, Queensland, Australia

Now
61 °F

Passing clouds.


Feels Like: 61 °F
Forecast: 63 / 82 °F
Wind: 8 mph from Southwest

Location: Brisbane Airport M. O


UV Index: 5 (Moderate)

Visibility: N/A


Pressure: 30.01 "Hg

Humidity: 94%

Dew point: 59 °F

Location of BrisbaneLocation

Historic Weather in Brisbane

°F

Brisbane temperature yesterday

Maximum temperature yesterday: 81 °F (at 2:30 PM)
Minimum temperature yesterday: 61 °F (at 4:30 AM)
Average temperature yesterday: 70 °F

Past Weeks' High & Low Weather Summary

 TemperatureHumidityPressure
High86 °F (Apr 12, 11:00 AM)100% (Apr 13, 9:00 PM)30.18 "Hg (Apr 13, 9:00 PM)
Low57 °F (Apr 19, 5:00 AM)24% (Apr 19, 12:00 PM)29.74 "Hg (Apr 11, 2:00 PM)
Average71 °F72%29.97 "Hg
* Reported Apr 9 4:00 AM — Apr 24 4:00 AM, Brisbane, Weather by CustomWeather, © 2014

Note: Actual official high and low records may vary slightly from our data, if they occured in-between our weather recording intervals... More about our weather records

Advertising

Historic Weather Conditions — Data for Previous 24 hours

 ConditionsComfort  
Time TempWeatherWind HumidityBarometerVisibility
4:00 AM
Apr 24
63 °FPassing clouds.7 mph94%29.98 "HgN/A
3:30 AM64 °FPassing clouds.8 mph94%29.98 "HgN/A
3:00 AM63 °FPassing clouds.8 mph94%29.98 "HgN/A
2:30 AM63 °FClear.8 mph94%30.01 "Hg10 mi
2:00 AM63 °FFog.6 mph94%30.01 "HgN/A
1:30 AM61 °FFog.6 mph100%30.01 "HgN/A
1:00 AM63 °FFog.No wind94%30.01 "HgN/A
12:00 AM64 °FFog.No wind94%30.04 "HgN/A
11:30 PM
Apr 23
64 °FPassing clouds.No wind94%30.04 "HgN/A
11:00 PM66 °FPassing clouds.No wind88%30.04 "HgN/A
10:30 PM66 °FClear.1 mph88%30.04 "Hg10 mi
10:00 PM66 °FPassing clouds.5 mph88%30.04 "HgN/A
9:30 PM68 °FPassing clouds.6 mph83%30.04 "HgN/A
9:00 PM70 °FPassing clouds.7 mph78%30.04 "HgN/A
8:30 PM70 °FPassing clouds.10 mph78%30.04 "HgN/A
8:00 PM72 °FPassing clouds.12 mph78%30.04 "HgN/A
7:30 PM70 °FPassing clouds.9 mph78%30.04 "HgN/A
7:00 PM72 °FPassing clouds.9 mph73%30.04 "HgN/A
6:30 PM72 °FPassing clouds.10 mph73%30.04 "HgN/A
6:00 PM72 °FPassing clouds.10 mph73%30.01 "HgN/A
5:30 PM73 °FPassing clouds.9 mph69%30.01 "HgN/A
5:00 PM75 °FPassing clouds.9 mph65%30.01 "HgN/A
4:30 PM75 °FPassing clouds.9 mph61%29.98 "HgN/A
4:00 PM77 °FPassing clouds.10 mph57%29.98 "HgN/A
3:30 PM79 °FScattered clouds.12 mph48%29.98 "HgN/A
3:00 PM79 °FPartly sunny.13 mph45%29.98 "HgN/A
2:30 PM81 °FPartly sunny.14 mph45%29.98 "HgN/A
2:00 PM79 °FPartly sunny.13 mph39%29.98 "HgN/A
1:30 PM79 °FPartly sunny.14 mph48%30.01 "HgN/A
1:00 PM79 °FPartly sunny.10 mph51%30.01 "HgN/A
12:30 PM79 °FPartly sunny.10 mph45%30.01 "HgN/A
12:00 PM79 °FScattered clouds.9 mph54%30.04 "HgN/A
11:30 AM79 °FPartly sunny.10 mph42%30.07 "HgN/A
11:00 AM79 °FScattered clouds.7 mph48%30.07 "HgN/A
10:30 AM79 °FPartly sunny.6 mph51%30.09 "HgN/A
10:00 AM75 °FPartly sunny.8 mph57%30.09 "HgN/A
9:30 AM73 °FPartly sunny.8 mph65%30.09 "HgN/A
9:00 AM72 °FPartly sunny.12 mph65%30.09 "HgN/A
8:30 AM70 °FPartly sunny.10 mph69%30.09 "HgN/A
8:00 AM68 °FPartly sunny.10 mph73%30.09 "HgN/A
7:00 AM64 °FBroken clouds.7 mph83%30.09 "HgN/A
6:30 AM63 °FBroken clouds.7 mph83%30.09 "HgN/A
6:00 AM63 °FBroken clouds.9 mph83%30.09 "HgN/A
5:30 AM61 °FSunny.6 mph88%30.09 "Hg10 mi
5:00 AM61 °FClear.7 mph88%30.07 "Hg10 mi
Weather by CustomWeather, © 2014

See weather overview